Location: Cahas Mountain Overlook
(37.0833°N, 80.1000°W)
Time: 19:02:52
(UTC-04:00)

Explorer 7 - Pass Details

Date: 10 February 2026
Orbit: 430 x 541 km, 50.2° (Epoch: 13 March)

Event Time Altitude Azimuth Distance (km) Brightness Sun altitude
Rises 17:51:47 0° 237° (WSW) 2,450 12.1 -0.2°
Reaches altitude 10° 17:53:53 10° 240° (WSW) 1,598 11.1 -0.6°
Maximum altitude 17:57:28 68° 323° (NW) 513 6.8 -1.3°
Drops below altitude 10° 18:01:15 10° 47° (NE) 1,676 8.7 -2.0°
Enters shadow 18:03:18 - 50° (NE) 2,505 9.6 -2.4°
Sets 18:03:30 0° 50° (NE) 2,583 - -2.4°
